Temp
-16 -15 -15 -14 -13 -13 -13 -13 -13 -13 -13 -14 -14 -14 -14 -14 -14 -15 -15 -14 -15 -15 -16 -16 -16 -15 -15 -16 -15 -15 -15 -15 -15 -14 -15 -15 -15 -15 -15 -15 -16 -16 -16
-15 -15 -15 -15 -14 -14 -14 -14 -15 -14 -14 -14 -14 -14 -14 -14 -14 -14 -14 -15 -15 -15 -15 -16 -16 -15 -16 -15 -15 -15 -15 -15 -15 -15 -15 -15 -15 -16 -16 -16 -16 -16 -16
-15 -15 -15 -15 -14 -14 -14 -14 -14 -14 -14 -14 -14 -14 -14 -14 -15 -15 -15 -15 -16 -15 -15 -15 -16 -15 -15 -16 -16 -16 -15 -15 -15 -15 -15 -15 -15 -15 -16 -16 -16 -16 -16
-14 -15 -15 -15 -15 -15 -14 -14 -14 -14 -14 -14 -14 -14 -14 -15 -15 -15 -15 -15 -15 -16 -16 -16 -16 -16 -16 -16 -16 -16 -16 -16 -15 -16 -16 -16 -16 -16 -16 -16 -16 -15 -16
-14 -14 -14 -14 -14 -15 -15 -14 -14 -14 -14 -14 -14 -14 -14 -14 -15 -15 -15 -15 -16 -16 -16 -16 -16 -16 -16 -16 -16 -16 -15 -15 -16 -16 -16 -16 -17 -17 -16 -16 -17 -16 -16
-14 -14 -14 -14 -14 -14 -14 -14 -15 -15 -14 -14 -14 -14 -14 -14 -15 -15 -16 -15 -15 -16 -16 -16 -16 -16 -16 -16 -16 -16 -16 -16 -16 -16 -16 -16 -17 -17 -17 -16 -17 -18 -18
-14 -14 -14 -14 -14 -14 -14 -14 -14 -14 -14 -14 -14 -15 -14 -15 -15 -15 -16 -16 -16 -16 -16 -16 -16 -16 -16 -16 -16 -16 -16 -16 -16 -15 -16 -16 -17 -17 -17 -17 -17 -17 -18
-13 -13 -14 -15 -15 -14 -15 -14 -14 -14 -14 -15 -15 -15 -15 -15 -14 -15 -15 -16 -16 -16 -16 -17 -17 -16 -16 -16 -16 -16 -16 -16 -17 -16 -17 -17 -17 -17 -17 -18 -18 -18 -18
-14 -13 -13 -14 -15 -15 -15 -15 -14 -14 -14 -15 -15 -15 -15 -15 -15 -15 -15 -15 -16 -16 -16 -17 -16 -16 -16 -17 -16 -16 -16 -17 -17 -17 -17 -17 -17 -17 -18 -18 -18 -18 -18
-15 -14 -14 -13 -13 -15 -15 -15 -16 -15 -15 -15 -15 -15 -15 -15 -15 -16 -15 -16 -16 -16 -16 -17 -17 -17 -17 -17 -17 -17 -17 -17 -17 -17 -17 -17 -18 -18 -18 -18 -18 -18 -18
-15 -15 -15 -14 -14 -14 -15 -15 -16 -15 -15 -14 -15 -15 -15 -15 -16 -16 -15 -16 -16 -16 -17 -17 -17 -17 -17 -17 -17 -17 -17 -17 -17 -17 -17 -18 -18 -18 -18 -18 -18 -19 -19
-14 -15 -15 -15 -15 -15 -16 -15 -15 -15 -16 -15 -15 -15 -15 -15 -15 -15 -14 -15 -16 -16 -17 -17 -17 -17 -17 -17 -18 -17 -17 -17 -17 -17 -17 -17 -18 -18 -18 -18 -19 -19 -19
-14 -15 -15 -15 -15 -15 -15 -15 -14 -15 -15 -16 -15 -16 -15 -15 -16 -16 -16 -16 -16 -17 -17 -17 -18 -18 -18 -17 -17 -17 -17 -17 -17 -17 -18 -18 -18 -18 -18 -18 -19 -20 -20
-16 -15 -15 -15 -15 -15 -15 -15 -15 -15 -15 -15 -16 -16 -16 -16 -16 -16 -16 -16 -17 -17 -17 -18 -18 -18 -17 -17 -17 -18 -17 -17 -17 -17 -18 -18 -18 -18 -19 -19 -20 -20 -21
-16 -15 -15 -15 -15 -16 -16 -16 -15 -15 -15 -15 -15 -15 -15 -16 -16 -17 -17 -17 -18 -18 -18 -18 -18 -17 -17 -18 -18 -17 -17 -17 -18 -18 -18 -18 -19 -19 -19 -20 -20 -21 -21
-15 -16 -15 -15 -14 -14 -15 -15 -15 -15 -15 -15 -15 -15 -15 -16 -16 -17 -18 -18 -18 -18 -18 -18 -18 -18 -17 -18 -18 -18 -18 -18 -18 -18 -19 -19 -19 -19 -20 -20 -20 -21 -22
-15 -16 -16 -15 -15 -15 -15 -15 -15 -15 -15 -15 -15 -15 -16 -16 -16 -17 -17 -17 -18 -18 -18 -18 -18 -17 -18 -18 -18 -18 -18 -18 -19 -19 -19 -19 -20 -20 -20 -21 -21 -22 -23
-15 -15 -16 -16 -15 -15 -15 -15 -15 -15 -15 -15 -15 -16 -16 -16 -16 -17 -17 -17 -18 -18 -18 -18 -18 -18 -18 -18 -18 -19 -19 -19 -19 -19 -20 -20 -20 -21 -21 -21 -22 -22 -22
-16 -15 -15 -16 -16 -16 -15 -15 -15 -15 -15 -15 -16 -16 -16 -16 -17 -17 -17 -18 -18 -18 -18 -18 -18 -18 -18 -18 -19 -19 -19 -20 -20 -20 -20 -21 -21 -21 -21 -21 -22 -22 -22
-16 -15 -15 -15 -16 -16 -16 -16 -16 -16 -16 -16 -16 -16 -16 -17 -17 -17 -18 -18 -18 -18 -18 -18 -18 -18 -19 -19 -19 -19 -20 -20 -20 -21 -21 -21 -21 -22 -22 -22 -22 -22 -22
-16 -16 -15 -15 -15 -16 -16 -16 -16 -16 -16 -16 -16 -16 -17 -17 -17 -17 -18 -18 -18 -18 -18 -18 -18 -19 -19 -19 -20 -20 -20 -20 -21 -21 -21 -22 -22 -22 -22 -23 -23 -23 -23
-16 -16 -16 -16 -15 -16 -16 -16 -16 -16 -17 -17 -17 -17 -17 -17 -18 -18 -18 -18 -18 -19 -19 -19 -19 -19 -19 -20 -20 -20 -21 -21 -21 -21 -22 -22 -22 -23 -23 -23 -24 -24 -25
-17 -16 -16 -16 -16 -16 -16 -16 -16 -17 -17 -17 -17 -17 -18 -18 -18 -18 -18 -19 -19 -19 -19 -20 -20 -20 -20 -20 -21 -21 -21 -21 -22 -22 -22 -22 -22 -23 -23 -24 -24 -25 -26
-17 -17 -17 -17 -17 -16 -16 -16 -17 -17 -17 -17 -18 -18 -19 -19 -19 -19 -19 -19 -19 -19 -20 -20 -20 -20 -21 -21 -21 -21 -22 -22 -22 -22 -22 -23 -23 -24 -24 -25 -26 -27 -28
-17 -17 -17 -17 -17 -17 -17 -17 -17 -17 -18 -18 -19 -19 -19 -19 -19 -19 -19 -19 -19 -20 -20 -21 -21 -21 -21 -21 -22 -22 -22 -22 -22 -23 -23 -24 -24 -25 -26 -27 -28 -29 -30
-17 -17 -17 -17 -17 -17 -17 -17 -18 -18 -18 -18 -19 -19 -19 -19 -19 -19 -19 -20 -20 -21 -21 -21 -21 -22 -22 -22 -22 -22 -23 -23 -23 -24 -24 -24 -25 -26 -27 -28 -29 -30 -31
Height
5739 5739 5738 5736 5735 5735 5738 5741 5744 5748 5751 5751 5753 5754 5754 5758 5758 5762 5769 5771 5770 5772 5775 5778 5779 5779 5780 5780 5780 5781 5782 5783 5782 5780 5781 5779 5776 5773 5770 5768 5765 5763 5760
5745 5741 5739 5739 5738 5740 5743 5745 5747 5750 5753 5754 5754 5752 5756 5760 5762 5764 5764 5765 5768 5770 5774 5774 5774 5773 5775 5775 5776 5777 5778 5776 5777 5774 5771 5770 5770 5766 5764 5761 5758 5754 5750
5746 5744 5744 5743 5742 5742 5744 5747 5749 5751 5752 5749 5752 5753 5754 5756 5756 5759 5762 5765 5767 5769 5769 5769 5770 5769 5770 5771 5771 5769 5770 5770 5769 5766 5764 5762 5760 5756 5754 5751 5747 5745 5741
5746 5746 5746 5746 5746 5746 5746 5746 5748 5750 5750 5750 5750 5751 5753 5756 5757 5759 5761 5764 5762 5763 5764 5765 5766 5764 5764 5766 5766 5764 5762 5760 5759 5757 5754 5750 5748 5746 5742 5739 5736 5732 5729
5744 5746 5745 5744 5744 5744 5744 5744 5746 5748 5748 5749 5749 5749 5751 5753 5756 5756 5758 5759 5759 5760 5759 5758 5758 5761 5759 5758 5759 5756 5754 5752 5749 5746 5744 5740 5737 5736 5733 5730 5724 5721 5716
5745 5744 5744 5744 5743 5743 5743 5745 5746 5745 5745 5745 5745 5747 5749 5751 5752 5752 5751 5752 5752 5752 5752 5753 5752 5751 5753 5752 5751 5747 5744 5742 5740 5735 5732 5728 5725 5724 5721 5718 5714 5709 5702
5744 5743 5742 5742 5741 5741 5741 5742 5742 5745 5744 5742 5744 5744 5744 5745 5745 5747 5748 5747 5747 5747 5748 5746 5746 5746 5745 5744 5743 5740 5737 5733 5728 5725 5720 5718 5713 5711 5707 5704 5702 5698 5692
5740 5742 5741 5741 5740 5739 5740 5738 5738 5739 5739 5738 5739 5740 5741 5741 5741 5741 5744 5744 5743 5742 5740 5739 5739 5738 5737 5734 5732 5729 5726 5723 5720 5713 5710 5709 5704 5700 5695 5692 5689 5685 5681
5737 5735 5737 5738 5738 5738 5737 5737 5737 5736 5737 5737 5736 5736 5738 5739 5737 5736 5736 5736 5735 5735 5735 5733 5731 5730 5728 5726 5723 5720 5716 5714 5709 5705 5701 5699 5696 5689 5685 5681 5676 5672 5668
5729 5730 5731 5733 5734 5734 5735 5734 5733 5733 5733 5733 5734 5733 5732 5731 5733 5731 5730 5728 5727 5727 5726 5725 5724 5722 5719 5717 5713 5710 5706 5701 5698 5695 5692 5688 5685 5680 5675 5669 5662 5656 5651
5730 5727 5722 5721 5725 5727 5729 5730 5729 5728 5729 5728 5725 5727 5728 5726 5723 5723 5720 5718 5718 5717 5718 5717 5715 5713 5710 5708 5704 5700 5696 5692 5688 5684 5680 5676 5672 5668 5661 5655 5647 5640 5633
5721 5721 5721 5718 5717 5720 5722 5723 5724 5721 5723 5723 5722 5720 5720 5715 5713 5713 5701 5711 5709 5709 5709 5706 5705 5703 5699 5696 5693 5689 5685 5681 5677 5673 5669 5663 5658 5653 5647 5640 5631 5623 5615
5714 5718 5717 5716 5712 5712 5716 5717 5717 5719 5720 5719 5716 5715 5712 5712 5707 5706 5697 5703 5704 5701 5699 5697 5695 5692 5688 5684 5681 5677 5674 5670 5665 5660 5656 5651 5645 5638 5631 5624 5616 5607 5600
5711 5708 5715 5713 5712 5709 5709 5709 5710 5710 5709 5709 5706 5706 5706 5704 5702 5703 5702 5699 5696 5692 5691 5688 5685 5681 5677 5673 5669 5666 5661 5656 5651 5646 5641 5635 5629 5623 5615 5607 5598 5590 5582
5705 5703 5702 5707 5711 5710 5708 5706 5705 5704 5702 5702 5702 5701 5700 5698 5695 5693 5691 5688 5686 5683 5681 5678 5674 5670 5666 5662 5658 5653 5648 5643 5638 5633 5627 5620 5613 5606 5598 5591 5583 5574 5566
5701 5699 5695 5695 5702 5704 5705 5703 5701 5700 5698 5697 5695 5693 5692 5689 5688 5685 5682 5678 5674 5671 5669 5665 5662 5658 5655 5651 5646 5641 5636 5631 5625 5618 5611 5604 5597 5590 5583 5574 5565 5556 5547
5694 5691 5689 5690 5692 5695 5695 5694 5693 5692 5692 5690 5687 5684 5682 5679 5676 5673 5670 5667 5663 5660 5657 5654 5650 5647 5643 5637 5632 5627 5622 5615 5609 5603 5596 5588 5580 5573 5568 5560 5550 5540 5528
5689 5687 5687 5686 5686 5686 5685 5684 5683 5682 5680 5679 5676 5674 5671 5669 5666 5663 5660 5657 5654 5650 5647 5644 5640 5635 5630 5625 5620 5614 5608 5601 5593 5586 5579 5573 5565 5556 5550 5545 5538 5527 5514
5681 5680 5681 5681 5679 5677 5676 5675 5674 5673 5671 5669 5667 5664 5661 5658 5656 5653 5649 5646 5643 5639 5636 5633 5629 5625 5619 5613 5606 5599 5593 5586 5578 5571 5563 5556 5548 5538 5531 5526 5520 5512 5499
5671 5672 5671 5671 5670 5669 5667 5666 5665 5662 5660 5657 5655 5653 5651 5648 5645 5641 5638 5634 5631 5628 5624 5620 5616 5610 5605 5598 5591 5584 5577 5570 5562 5555 5546 5538 5530 5520 5511 5505 5497 5492 5481
5663 5661 5662 5661 5661 5659 5657 5656 5654 5652 5650 5647 5644 5642 5639 5636 5633 5630 5627 5623 5619 5615 5610 5606 5601 5596 5589 5582 5575 5568 5560 5553 5546 5537 5528 5519 5510 5501 5491 5481 5471 5463 5458
5655 5654 5652 5651 5651 5648 5646 5645 5643 5641 5638 5635 5633 5631 5628 5625 5621 5618 5615 5612 5606 5600 5594 5589 5586 5580 5573 5566 5557 5549 5542 5536 5527 5520 5511 5501 5492 5482 5471 5460 5449 5438 5428
5644 5643 5643 5641 5638 5637 5636 5634 5632 5629 5626 5623 5621 5618 5615 5612 5608 5604 5601 5596 5591 5585 5579 5573 5567 5562 5556 5548 5540 5532 5525 5518 5510 5501 5492 5483 5474 5464 5452 5440 5428 5416 5405
5632 5631 5630 5628 5627 5626 5624 5621 5618 5616 5614 5611 5608 5605 5601 5598 5594 5590 5585 5580 5574 5569 5562 5554 5547 5542 5537 5529 5522 5515 5506 5498 5490 5480 5471 5462 5454 5444 5433 5420 5408 5395 5383
5621 5620 5618 5617 5616 5613 5612 5609 5607 5604 5601 5598 5594 5590 5586 5582 5579 5574 5568 5563 5558 5551 5544 5537 5530 5523 5516 5510 5503 5495 5486 5478 5471 5461 5451 5441 5431 5421 5410 5398 5386 5375 5362
5610 5609 5607 5605 5604 5603 5600 5597 5594 5592 5588 5584 5580 5575 5571 5567 5564 5558 5552 5546 5540 5533 5527 5520 5513 5505 5496 5488 5480 5473 5465 5456 5448 5438 5428 5417 5406 5396 5386 5376 5366 5354 5343
Wind_Speed
15 18 18 16 10 6 9 11 8 11 12 16 17 18 18 14 13 13 14 13 5 2 5 10 14 13 18 19 19 20 22 24 27 29 28 27 29 30 28 31 34 37 41
7 10 12 15 17 18 18 17 18 15 14 15 13 14 12 10 10 8 4 2 4 7 10 13 17 16 17 20 22 24 25 29 30 33 35 34 32 32 31 32 37 37 39
12 11 12 12 12 11 12 11 11 9 7 9 8 8 8 6 6 3 2 4 7 10 12 14 17 20 21 22 25 29 31 35 37 40 41 41 38 38 39 39 36 34 36
10 11 12 12 11 10 10 8 8 6 5 4 5 5 5 4 4 5 5 6 8 11 13 15 17 21 23 24 26 28 31 33 38 38 46 42 41 39 42 46 50 50 46
6 5 8 9 7 6 5 5 4 3 2 3 3 5 5 5 5 7 9 8 11 13 15 16 20 21 27 27 30 31 38 43 43 43 46 43 39 42 46 49 50 53 53
6 5 6 6 6 5 4 2 1 4 6 4 4 5 5 7 6 6 9 10 11 11 9 16 18 19 21 23 33 36 38 42 45 45 53 43 35 40 46 51 53 53 54
5 8 10 10 10 9 9 8 9 8 7 9 7 7 7 11 9 8 9 15 15 15 17 19 21 20 22 25 29 33 38 37 39 49 46 44 44 45 53 56 56 54 56
8 8 9 10 13 13 11 13 14 13 8 9 12 10 11 14 15 16 16 19 20 19 21 22 25 28 28 31 34 35 38 39 39 45 34 40 52 53 55 55 55 57 61
15 18 14 13 11 13 14 14 14 15 13 11 11 14 16 16 20 22 22 25 24 24 20 27 32 34 33 36 38 38 38 40 38 35 41 41 46 56 46 51 61 68 66
21 22 18 14 13 9 13 15 16 14 13 13 14 15 19 23 23 25 28 29 26 27 28 31 36 34 39 39 40 40 41 40 39 42 44 44 45 50 59 64 64 65 67
21 23 26 26 19 15 13 16 20 20 16 24 19 20 24 28 31 28 28 33 30 30 31 36 37 40 41 39 39 41 41 42 44 43 44 46 49 52 57 61 64 66 68
18 18 18 23 24 19 20 20 20 21 15 25 25 25 32 38 37 29 34 30 31 36 41 37 36 41 41 41 42 43 43 44 44 45 47 50 54 58 61 64 67 68 69
22 11 14 16 21 23 20 21 19 18 22 27 26 29 27 32 36 33 35 32 40 43 37 37 41 43 43 44 44 43 44 45 47 49 51 54 58 61 65 67 67 67 69
23 18 14 16 18 19 20 23 24 25 26 27 29 31 32 33 35 33 37 39 39 35 40 43 44 45 46 46 46 45 47 48 50 53 56 60 62 64 66 66 67 69 70
27 31 28 18 15 18 21 25 27 29 31 32 32 33 33 33 34 35 38 39 39 40 43 45 43 46 46 47 46 48 50 52 55 58 61 62 64 66 66 67 69 70 70
21 25 25 27 12 12 18 23 27 28 30 32 34 35 35 35 36 36 38 39 43 44 45 46 46 46 47 47 49 51 52 56 60 62 64 66 67 66 68 69 72 73 75
16 21 27 26 24 22 23 26 29 31 32 34 34 36 37 38 38 40 41 43 45 46 46 46 46 47 48 50 52 54 57 61 63 64 66 67 67 67 69 70 71 73 76
24 24 28 31 32 32 31 32 32 34 34 35 38 39 39 40 40 40 41 43 45 47 46 48 49 50 52 54 56 58 61 64 66 67 66 66 68 68 69 71 73 75 79
27 30 30 32 33 35 36 37 36 35 36 38 39 41 41 42 42 43 45 46 47 47 49 50 52 53 54 56 59 62 63 66 67 67 68 68 69 71 74 75 77 80 82
30 30 33 35 35 36 37 38 37 38 40 40 41 41 41 43 44 45 47 46 47 49 51 52 54 56 58 60 63 65 66 68 69 68 68 71 72 74 78 81 82 84 87
31 33 33 33 35 37 38 39 38 38 40 41 41 42 43 44 45 45 45 47 49 51 53 55 58 60 63 64 66 68 69 69 68 69 71 73 76 79 82 86 88 91 93
34 35 37 35 35 35 35 36 36 38 39 40 41 42 44 44 44 46 47 49 51 55 59 60 60 61 65 67 69 70 70 69 71 72 74 74 79 83 86 90 93 95 95
40 40 36 37 39 40 39 38 39 41 40 42 42 44 44 44 46 47 50 52 56 58 59 62 64 65 66 66 68 70 70 71 73 76 78 80 84 87 91 94 95 93 91
45 40 40 41 43 40 37 39 40 40 41 42 42 44 45 47 49 51 54 55 57 60 61 64 67 67 67 68 70 70 71 75 78 81 83 85 88 91 93 93 91 90 87
40 40 39 40 42 42 40 37 37 40 42 41 43 46 49 52 53 54 56 59 61 63 66 68 69 67 68 70 71 74 78 80 81 83 86 89 91 92 91 88 86 85 82
43 44 45 43 42 42 39 38 40 42 44 46 49 53 55 57 58 60 62 63 66 68 70 71 68 69 71 73 76 79 80 82 85 88 91 92 92 91 88 87 85 81 77
Wind_Direction
58 72 82 87 93 71 85 126 123 116 122 109 111 110 104 109 110 127 155 167 143 207 234 248 254 268 255 251 248 255 261 265 271 276 280 287 301 297 295 303 304 302 297
58 52 68 72 77 89 93 100 107 120 131 130 125 116 119 131 136 133 131 125 233 246 258 260 262 265 263 258 263 267 272 278 281 283 285 288 295 299 294 297 300 301 302
58 59 64 76 85 93 100 109 114 120 114 99 105 105 99 82 61 52 276 267 268 276 274 272 269 270 259 257 268 277 284 284 286 287 287 285 288 291 292 296 302 306 307
42 51 55 54 65 79 79 78 89 91 93 82 57 53 52 37 13 324 313 305 296 290 284 281 274 275 274 270 276 278 295 296 293 292 281 280 285 287 294 298 297 296 307
350 1 14 11 8 28 43 47 46 15 355 356 10 3 337 358 349 334 321 319 311 296 291 300 294 280 275 279 280 281 287 291 291 295 287 288 285 291 292 296 301 300 294
324 303 341 345 340 337 326 282 300 301 277 289 326 325 289 279 302 308 306 300 304 299 308 302 307 326 287 294 284 286 297 293 288 287 280 284 302 306 297 297 301 298 302
249 304 317 323 328 329 304 292 284 270 280 292 287 270 292 285 286 280 282 287 288 292 299 293 298 303 297 295 298 291 294 298 288 288 299 284 278 306 300 300 298 297 301
287 259 279 290 304 309 308 299 289 286 287 279 284 292 283 280 284 283 275 275 277 272 282 293 301 303 300 302 305 302 303 298 307 290 304 299 287 293 296 300 300 299 298
331 324 316 301 280 280 289 287 285 282 277 266 275 279 273 265 273 277 279 280 279 279 278 298 298 297 300 302 302 301 305 299 296 294 302 293 285 282 293 289 293 294 297
316 311 303 305 312 276 268 275 269 265 271 277 272 269 274 278 274 277 281 282 278 284 290 295 296 296 301 301 301 301 300 297 300 284 295 290 287 287 291 295 298 300 301
289 297 297 296 295 286 278 273 271 279 285 293 278 283 283 280 275 277 285 280 272 281 288 295 293 293 296 297 298 299 297 297 296 297 296 295 294 296 299 300 301 301 302
310 272 269 281 286 282 277 278 283 306 296 284 284 288 292 290 275 278 265 290 282 292 296 290 290 295 296 297 299 300 299 297 297 297 298 301 302 302 301 302 303 305 306
296 297 267 264 281 287 286 286 299 297 287 284 286 289 287 292 292 290 287 292 290 292 290 289 295 297 297 299 299 299 298 297 298 300 301 301 302 303 304 304 305 305 306
284 287 284 266 264 282 296 297 293 292 288 291 292 294 291 292 289 285 283 287 292 296 294 295 294 295 296 298 298 298 298 299 301 303 304 303 303 303 305 305 305 307 306
274 285 284 269 241 248 270 280 283 289 290 293 294 292 290 286 286 287 286 288 289 291 288 292 293 294 297 297 297 298 299 301 303 303 303 304 305 305 305 306 306 305 304
289 287 273 275 268 248 251 264 275 275 280 286 289 290 289 287 285 283 284 287 290 291 291 294 296 296 296 298 298 299 300 301 303 305 305 305 304 305 306 307 307 306 306
289 278 276 275 280 277 270 272 272 275 279 283 287 290 291 292 291 289 288 287 289 291 292 293 294 295 295 295 297 300 302 303 303 303 304 304 304 305 306 306 305 306 307
283 266 266 275 281 283 281 281 282 285 288 289 289 289 289 289 289 288 287 287 288 290 292 295 294 294 297 298 298 298 299 302 302 303 303 303 303 305 305 305 304 305 307
277 272 271 271 274 279 284 286 288 290 290 288 287 287 286 286 286 287 289 290 290 290 291 292 293 295 294 295 298 300 301 302 301 301 302 302 303 305 305 304 304 305 307
280 281 279 278 279 281 282 284 285 287 287 286 286 287 288 288 287 287 287 287 289 290 291 292 294 294 295 296 298 299 300 300 302 302 302 303 303 304 304 304 304 305 306
280 283 283 281 278 280 282 279 281 284 286 288 289 288 286 285 286 286 288 290 291 293 293 292 293 294 297 298 299 300 299 301 301 300 302 303 304 305 305 305 306 306 306
279 283 286 284 281 280 281 280 282 283 284 286 286 286 285 285 287 289 291 293 294 295 294 294 294 296 297 299 299 299 298 299 300 300 301 303 303 304 305 306 306 305 306
278 282 283 285 284 286 285 286 287 284 284 285 285 285 286 288 289 290 291 292 293 295 294 297 297 298 300 299 300 300 299 299 300 301 302 303 304 304 304 304 304 305 306
279 280 281 281 286 289 291 290 285 281 285 287 286 287 287 287 288 289 291 291 295 299 298 297 299 300 299 299 299 298 298 300 301 302 302 302 302 302 302 303 304 305 306
274 282 282 282 287 288 294 294 285 285 287 287 288 287 286 286 289 292 293 297 299 300 300 299 298 294 296 298 298 298 298 299 300 300 300 301 301 302 303 304 305 305 305
281 285 284 282 286 288 291 290 289 290 289 287 285 284 286 289 291 293 298 300 300 297 292 290 291 292 298 298 298 298 299 299 300 300 300 301 302 303 304 305 305 305 305